Regional Weather Roundup
Issued by NWS Albany, NY

Home | Current Version | Previous Version | Text Only | Print | Product List | Glossary On
Versions: 1 2 3 4 5 6 7 8 9 10 11 12 13 14 15 16 17 18 19 20 21 22 23 24 25 26 27 28 29 30 31 32 33 34 35 36 37 38 39 40 41 42 43 44 45 46 47 48 49 50
000
ASUS41 KALY 060010
RWRALY

NEW YORK STATE HOURLY WEATHER ROUNDUP
NATIONAL WEATHER SERVICE ALBANY NY
800 PM EDT SUN JUL 05 2015

NOTE: "FAIR" INDICATES FEW OR NO CLOUDS BELOW 12,000 FEET WITH NO
SIGNIFICANT WEATHER AND/OR NO OBSTRUCTIONS TO VISIBILITY.

NYZ032-033-038>043-046>054-057>066-NYZ062>081-060100-
EAST


CITY           SKY/WX    TMP DP  RH WIND       PRES   REMARKS
ALBANY         PTCLDY    76  60  57 SW7       30.09R
GLENS FALLS    PTCLDY    75  63  66 SW3       30.07R
POUGHKEEPSIE   PTCLDY    78  62  57 SE3       30.08S
NEWBURGH       CLEAR     77  64  65 CALM      30.11F
MONTGOMERY     PTCLDY    76  65  68 SW3       30.09S
WHITE PLAINS   PTCLDY    75  63  66 S7        30.11S
ISLIP          MOCLDY    73  63  70 SW9       30.11S
NEW YORK CITY  MOCLDY    77  62  59 VRB7      30.10S
CENTRAL PARK   PTCLDY    78  61  55 VRB3      30.13S
$$

NYZ005>009-017-018-044>046-055-056-060100-
CENTRAL


CITY           SKY/WX    TMP DP  RH WIND       PRES   REMARKS
FULTON         CLEAR     71  61  70 CALM      30.11S
SYRACUSE       PTCLDY    73  59  61 N5        30.11R
ROME           CLEAR     74  58  57 W6        30.12R
ELMIRA         PTCLDY    74  63  68 CALM      30.12R
BINGHAMTON     CLEAR     73  53  49 NW3       30.16R
MONTICELLO     PTCLDY    72  57  60 W3        30.16S
$$

NYZ026>034-041>043-060100-
NORTH


CITY           SKY/WX    TMP DP  RH WIND       PRES   REMARKS
WATERTOWN      PTCLDY    69  58  67 SW6       30.11R
FORT DRUM      NOT AVBL
MASSENA        CLEAR     75  63  66 SW5       30.08R
SARANAC LAKE   CLEAR     69  55  60 CALM      30.12R
PLATTSBURGH    CLEAR     71  64  78 CALM      30.06R
$$

NYZ001>004-010>016-019>021-060100-
WEST


CITY           SKY/WX    TMP DP  RH WIND       PRES   REMARKS
NIAGARA FALLS  MOCLDY    75  56  51 SW6       30.10R
BUFFALO        MOCLDY    77  56  48 W3        30.11R
DUNKIRK        PTCLDY    72  57  59 CALM      30.11S
JAMESTOWN      MOCLDY    73  55  53 NE3       30.16R
WELLSVILLE     PTCLDY    72  54  53 CALM      30.18S
ROCHESTER      PTCLDY    77  62  59 SE7       30.10S
PENN YAN       CLEAR     74  64  71 SE3       30.13S
$$

             KEY
       WCI = WIND CHILL INDEX
       VSB = VISIBILITY
       HX  = HEAT INDEX
$$



USA.gov is the U.S. government's official web portal to all federal, state and local government web resources and services.